Location: Góry Miechowskie
(50.3599°N, 20.1803°E)
Time: 21:36:01
(UTC+00:00)

Cosmos 2219 - Pass Details

Date: 20 September 2024
Orbit: 831 x 860 km, 71.1° (Epoch: 13 October)

Event Time Altitude Azimuth Distance (km) Brightness Sun altitude
Rises 03:40:26 0° 198° (SSW) 3,391 6.1 -7.6°
Reaches altitude 10° 03:42:52 10° 196° (SSW) 2,465 5.4 -7.2°
Maximum altitude 03:48:29 68° 114° (ESE) 920 3.7 -6.3°
Drops below altitude 10° 03:54:11 10° 33° (NNE) 2,500 6.3 -5.4°
Sets 03:56:40 0° 31° (NNE) 3,443 7.0 -5.0°
